World > North America > United States > Florida

San Mateo, Florida Regional Weather

Lat: 29.61N, Lon: 81.58W
Wx Zone: FLZ037
Feedback

San Mateo, FL Regional Weather

Expires:201908180800;;815457
ASUS42 KTBW 180720
RWRFL 
FLORIDA REGIONAL WEATHER ROUNDUP
NATIONAL WEATHER SERVICE TAMPA BAY RUSKIN FL
300 AM EDT SUN AUG 18 2019

NOTE: "FAIR" INDICATES FEW OR NO CLOUDS BELOW 12,000 FEET WITH NO
SIGNIFICANT WEATHER AND/OR OBSTRUCTIONS TO VISIBILITY.


FLZ011-016>038-118-127-128-134-139-239-180800-
NORTH FLORIDA
  
CITY           SKY/WX    TMP DP  RH WIND       PRES   REMARKS
MARIANNA       FAIR      76  75  97 SE3       29.97F                  
TALLAHASSEE    FAIR      77  76  96 E6        30.00S                  
PERRY          CLOUDY    75  74  97 SE6       30.03S                  
LIVE OAK       CLEAR     72  73 100 CALM      30.04S                  
CROSS CITY     MOCLDY    74  73  98 S5        30.05S                  
LAKE CITY      FAIR      72  70  94 S3        30.06S                  
GAINESVILLE    FAIR      73  72  96 SE5       30.08F                  
WILLISTON      FAIR      75  74  97 S5        30.05F                  
MAYPORT NAS    FAIR      75  72  90 SW6       30.05F                  
JACKSONVILLE   MOCLDY    75  73  93 S7        30.05F                  
JAX NAS        MOCLDY    76  72  87 S6        30.06F                  
JAX CECIL      FAIR      73  72  94 CALM      30.06S                  
FERNANDINA BEA FAIR      75  74  95 SW10      30.06S                  
ST AUGUSTINE   MOCLDY    76  73  91 W5        30.06F                  
PALM COAST     CLOUDY    75  73  92 S5        30.07S                  

STATION/POSITION SKY/WX   TEMP    WIND        PRES    WAVE   SWELL
                          AIR SEA DIR/SP/G            HT/PER HT/PER
                          (F)     (DEG/KT/KT) (MB)    (FT/S) (FT/S)
SHELL POINT      NOT AVBL
KEATON BEACH               81     180/ 10/ 12 1017.0F
CEDAR KEY                  76      30/  4/  6 1017.8F
FERNANDINA                 80 82              1018.4R
30.7N   81.3W                 80                N/A     2/ 4
MAYPORT                    75 81  200/  5/  7 1018.2F
31.4N   80.9W              80 83  240/ 19/ 23 1016.5    3/ 5   2/ 8
ST AUGUSTINE               78 80  220/  8/ 12 1018.2F

$$

SKY/WX - Weather  TMP - Temperature  DP - Dew Point  RH - Relative Humidity
WIND - Wind Direction/Speed PRES - Barometric Pressure VSB - Visibility
WCI - Wind Chill Index E13G22 Wind - East Wind 13 mph/Gusts of 22 mph